カタログに戻る

COSMOS 2547

GLONASS

運用中ナビゲーションMEO
NORAD 46805·PAYLOAD·🇷🇺 Russia

打ち上げ Oct 25, 2020 から Plesetsk Cosmodrome

Loading…

次のパス (今後24時間)

TLE

最新Source: CelesTrak SupGP

元期: Sep 14, 2026, 23:59 UTC

1 46805C 20075A   26257.99979167  .00000000  00000+0  00000+0 0  2571
2 46805  64.6006 189.4808 0008198 235.1421  91.3946  2.13099895    18

AllMySatでCOSMOS 2547をリアルタイム追跡

Download on the App Store